Woodland, NC

8:51 AM EST on December 09, 2016 (GMT -0500)
Tri County

Weather History for KASJ - November, 2012

Change the Weather History Date:

Wednesday, November 28, 2012

  Actual Average (KEMV) Record (KEMV)
Temperature  
Mean Temperature 38 °F -  
Max Temperature 48 °F 64 °F 77 °F (2003)
Min Temperature 28 °F 37 °F 14 °F (1991)
Degree Days  
Heating Degree Days 26    
Moisture  
Dew Point 31 °F    
Average Humidity 82    
Maximum Humidity 100    
Minimum Humidity 51    
Precipitation  
Precipitation 0.00 in - - ()
Sea Level Pressure  
Sea Level Pressure 30.31 in    
Wind  
Wind Speed 3 mph (NNW)    
Max Wind Speed 10 mph    
Max Gust Speed -    
Visibility 8 miles    
Events      
Averages and records for this station are not official NWS values.
T = Trace of Precipitation, MM = Missing Value Source: NWS Daily Summary

Daily Weather History Graph

Daily Weather History Graph

Search for Another Location

Airport or City:

Trip Planner

Search our weather history database for the weather conditions in past years. The results will help you decide how hot, cold, wet, or windy it might be!

Date:

Astronomy

Nov. 28, 2012 Rise Set
Actual Time 6:59 AM EST 4:54 PM EST
Civil Twilight 6:31 AM EST 5:22 PM EST
Nautical Twilight 5:59 AM EST 5:54 PM EST
Astronomical Twilight 5:28 AM EST 6:25 PM EST
Moon 5:07 PM EST (11/28) 6:54 AM EST (11/28)
Length of Visible Light 10h 51m
Length of Day
9h 55m
Full, 100% of the Moon is Illuminated
Nov 28
Full
Dec 6
Last Quarter
Dec 13
New
Dec 20
First Quarter
Dec 28
Full

Hourly Weather History & Observations

Time (EST) Temp. Windchill Dew Point Humidity Pressure Visibility Wind Dir Wind Speed Gust Speed Precip Events Conditions
12:15 AM 37.4 °F 32.1 °F 35.6 °F 93% 30.24 in 10.0 mi North 6.9 mph - N/A   Overcast
12:35 AM 37.4 °F 33.8 °F 33.8 °F 87% 30.24 in 10.0 mi North 4.6 mph - N/A   Scattered Clouds
12:55 AM 37.4 °F - 33.8 °F 87% 30.24 in 10.0 mi Calm Calm - N/A   Clear
1:15 AM 35.6 °F 32.8 °F 33.8 °F 93% 30.24 in 7.0 mi NNW 3.5 mph - N/A   Clear
1:35 AM 35.6 °F - 33.8 °F 93% 30.24 in 10.0 mi Calm Calm - N/A   Clear
1:55 AM 33.8 °F - 32.0 °F 93% 30.25 in 7.0 mi Calm Calm - N/A   Clear
2:15 AM 33.8 °F - 32.0 °F 93% 30.25 in 7.0 mi Calm Calm - N/A   Clear
2:55 AM 33.8 °F 29.6 °F 32.0 °F 93% 30.25 in 10.0 mi NNW 4.6 mph - N/A   Clear
3:15 AM 33.8 °F 28.6 °F 32.0 °F 93% 30.25 in 10.0 mi NNW 5.8 mph - N/A   Clear
3:35 AM 33.8 °F 30.8 °F 32.0 °F 93% 30.24 in 10.0 mi North 3.5 mph - N/A   Clear
3:55 AM 33.8 °F 30.8 °F 32.0 °F 93% 30.25 in 7.0 mi NNW 3.5 mph - N/A   Clear
4:15 AM 33.8 °F - 32.0 °F 93% 30.25 in 7.0 mi Calm Calm - N/A   Clear
4:35 AM 32.0 °F - 32.0 °F 100% 30.25 in 7.0 mi Calm Calm - N/A   Clear
4:55 AM 32.0 °F - 30.2 °F 93% 30.26 in 5.0 mi Calm Calm - N/A   Clear
5:15 AM 32.0 °F - 30.2 °F 93% 30.26 in 4.0 mi Calm Calm - N/A   Clear
5:35 AM 32.0 °F - 32.0 °F 100% 30.27 in 4.0 mi Calm Calm - N/A   Clear
5:55 AM 32.0 °F - 28.4 °F 87% 30.27 in 2.0 mi Calm Calm - N/A   Clear
6:15 AM 30.2 °F - 28.4 °F 93% 30.28 in 2.0 mi Calm Calm - N/A   Clear
7:15 AM 30.2 °F - 28.4 °F 93% 30.30 in 1.2 mi Calm Calm - N/A   Mist
7:35 AM 30.2 °F - 28.4 °F 93% 30.31 in 0.8 mi Calm Calm - N/A   Mist
7:55 AM 30.2 °F - 28.4 °F 93% 30.31 in 2.5 mi Calm Calm - N/A   Clear
8:15 AM 32.0 °F - 32.0 °F 100% 30.32 in 5.0 mi Calm Calm - N/A   Clear
8:35 AM 33.8 °F 29.6 °F 32.0 °F 93% 30.32 in 10.0 mi North 4.6 mph - N/A   Scattered Clouds
8:55 AM 35.6 °F 31.7 °F 32.0 °F 87% 30.32 in 10.0 mi North 4.6 mph - N/A   Clear
9:15 AM 37.4 °F 33.8 °F 32.0 °F 81% 30.34 in 10.0 mi NNW 4.6 mph - N/A   Clear
9:35 AM 37.4 °F 32.8 °F 32.0 °F 81% 30.34 in 10.0 mi North 5.8 mph - N/A   Clear
9:55 AM 37.4 °F 31.4 °F 32.0 °F 81% 30.34 in 10.0 mi North 8.1 mph - N/A   Clear
10:35 AM - - - N/A% - - North - - N/A   Unknown
10:55 AM - - - N/A% - - North - - N/A   Unknown
11:15 AM 45.1 °F 39.9 °F 32.0 °F 60% 30.33 in 10.0 mi North 10.4 mph - N/A   Clear
11:35 AM 45.1 °F 41.4 °F 31.6 °F 59% 30.33 in 10.0 mi NNW 6.9 mph - N/A   Clear
11:55 AM 45.1 °F 42.0 °F 30.4 °F 56% 30.32 in 10.0 mi NNW 5.8 mph - N/A   Clear
12:35 PM 45.1 °F 42.8 °F 30.4 °F 56% 30.31 in 10.0 mi North 4.6 mph - N/A   Unknown
12:55 PM 46.4 °F 42.4 °F 31.6 °F 56% 30.31 in 10.0 mi North 8.1 mph - N/A   Clear
1:15 PM 47.3 °F - 31.1 °F 53% 30.30 in 10.0 mi NNW 8.1 mph - N/A   Clear
1:55 PM 47.5 °F - 31.3 °F 53% 30.29 in 10.0 mi WNW 3.5 mph - N/A   Clear
2:15 PM 47.5 °F - 31.3 °F 53% 30.29 in 10.0 mi West 4.6 mph - N/A   Clear
2:35 PM 47.5 °F - 31.3 °F 53% 30.28 in 10.0 mi Calm Calm - N/A   Clear
2:55 PM 48.7 °F - 31.3 °F 51% 30.29 in 10.0 mi NNW 5.8 mph - N/A   Clear
3:15 PM 48.2 °F - 30.7 °F 51% 30.29 in 10.0 mi NNW 6.9 mph - N/A   Clear
3:35 PM 47.5 °F - 31.1 °F 53% 30.29 in 10.0 mi NNW 3.5 mph - N/A   Clear
3:55 PM 46.4 °F - 30.4 °F 54% 30.30 in 10.0 mi Calm Calm - N/A   Clear
4:15 PM 45.3 °F - 30.7 °F 57% 30.30 in 10.0 mi Calm Calm - N/A   Clear
4:35 PM 45.1 °F - 32.0 °F 60% 30.31 in 10.0 mi Calm Calm - N/A   Clear
4:55 PM 42.8 °F - 33.6 °F 70% 30.32 in 10.0 mi Calm Calm - N/A   Clear
5:15 PM 39.2 °F - 32.7 °F 78% 30.32 in 10.0 mi Calm Calm - N/A   Clear
5:35 PM 38.7 °F - 32.5 °F 79% 30.32 in 10.0 mi Calm Calm - N/A   Clear
5:55 PM 36.3 °F - 32.2 °F 85% 30.33 in 10.0 mi Calm Calm - N/A   Clear
6:15 PM 35.1 °F - 31.8 °F 88% 30.34 in 10.0 mi Calm Calm - N/A   Clear
6:35 PM 35.1 °F - 32.0 °F 89% 30.35 in 10.0 mi Calm Calm - N/A   Clear
6:55 PM 32.9 °F - 30.2 °F 90% 30.35 in 10.0 mi Calm Calm - N/A   Clear
7:35 PM 32.5 °F - 30.2 °F 91% 30.36 in 10.0 mi Calm Calm - N/A   Clear
7:55 PM 31.6 °F - 28.9 °F 90% 30.37 in 7.0 mi Calm Calm - N/A   Clear
8:15 PM 30.2 °F - 27.7 °F 90% 30.37 in 5.0 mi Calm Calm - N/A   Clear
8:55 PM 30.2 °F - 28.0 °F 92% 30.37 in 7.0 mi Calm Calm - N/A   Clear
9:15 PM 30.2 °F - 28.0 °F 92% 30.38 in 4.0 mi Calm Calm - N/A   Clear
9:35 PM 30.2 °F - 28.2 °F 92% 30.38 in 3.0 mi Calm Calm - N/A   Clear
9:55 PM 30.2 °F - 28.2 °F 92% 30.39 in 4.0 mi Calm Calm - N/A   Clear
10:15 PM 30.2 °F - 28.2 °F 92% 30.39 in 3.0 mi Calm Calm - N/A   Clear
10:35 PM 30.2 °F - 28.0 °F 92% 30.39 in 4.0 mi Calm Calm - N/A   Clear
10:55 PM 29.7 °F - 27.7 °F 92% 30.39 in 4.0 mi Calm Calm - N/A   Clear
11:15 PM 30.2 °F - 28.2 °F 92% 30.38 in 5.0 mi Calm Calm - N/A   Clear
11:35 PM 30.2 °F - 28.2 °F 92% 30.38 in 5.0 mi Calm Calm - N/A   Clear
11:55 PM 28.6 °F - 26.4 °F 92% 30.38 in 5.0 mi Calm Calm - N/A   Clear